Flag for Central African Republic Weather past 2 weeks in Bimbo, Central African Republic

Now
88 °F

Partly sunny.


Feels Like: 98 °F
Forecast: 72 / 87 °F
Wind: 3 mph from North

Location: Bangui Airport

Current Time: Sep 18, 2014 at 1:01:01 PM

Latest Report: Sep 18, 2014 at 12:00 PM


Visibility: N/A

Pressure: 29.92 "Hg

Humidity: 66%

Dew point: 75 °F

Location of BimboLocation

Historic Weather in Bimbo — Graph

°F

Bimbo temperature yesterday

Maximum temperature yesterday: 88 °F (at 11:00 AM)
Minimum temperature yesterday: 70 °F (at 5:00 AM)
Average temperature yesterday: 76 °F

Past Weeks' High & Low Weather Summary

 TemperatureHumidityPressure
High91 °F (Sep 3, 1:00 PM)100% (Sep 5, 1:00 AM)30.01 "Hg (Sep 5, 1:00 AM)
Low68 °F (Sep 10, 3:00 AM)49% (Sep 13, 3:00 PM)29.77 "Hg (Sep 3, 4:00 PM)
Average78 °F84%29.90 "Hg
* Reported Sep 3 12:00 Noon — Sep 18 12:00 Noon, Bimbo, Weather by CustomWeather, © 2014

Note: Actual official high and low records may vary slightly from our data, if they occured in-between our weather recording intervals... More about our weather records

Advertising

Bimbo weather history for previous 24 hours

 ConditionsComfort  
Time TempWeatherWind HumidityBarometerVisibility
12:00 PM
Sep 18
88 °FPartly sunny.3 mph66%29.92 "HgN/A
11:00 AM86 °FScattered clouds.3 mph62%29.95 "HgN/A
10:00 AM82 °FBroken clouds.3 mph70%29.95 "HgN/A
9:00 AM79 °FBroken clouds.2 mph84%29.98 "HgN/A
8:00 AM75 °FPartly sunny.5 mph89%29.98 "HgN/A
7:00 AM72 °FPartly sunny.No wind100%29.95 "Hg5 mi
5:00 AM70 °FOvercast.1 mph100%29.92 "Hg4 mi
4:00 AM70 °FOvercast.2 mph100%29.92 "Hg4 mi
3:00 AM70 °FOvercast.2 mph100%29.89 "Hg4 mi
2:00 AM70 °FOvercast.N/A100%29.89 "HgN/A
1:00 AM72 °FOvercast.1 mph94%29.89 "Hg5 mi
12:00 AM70 °FOvercast.2 mph100%29.89 "Hg5 mi
11:00 PM
Sep 17
72 °FOvercast.1 mph94%29.92 "Hg5 mi
10:00 PM70 °FMostly cloudy.3 mph100%29.92 "Hg5 mi
9:00 PM72 °FMostly cloudy.No wind100%29.92 "Hg5 mi
8:00 PM72 °FThunderstorms. Mostly cloudy.No wind94%29.92 "Hg4 mi
7:00 PM70 °FThunderstorms. Mostly cloudy.5 mph100%29.89 "Hg4 mi
6:00 PM72 °FThunderstorms. Mostly cloudy.9 mph94%29.89 "Hg2 mi
5:00 PM77 °FThunderstorms. Broken clouds.10 mph89%29.86 "HgN/A
4:00 PM81 °FThunderstorms. Broken clouds.No wind74%29.83 "HgN/A
3:00 PM79 °FThunderstorms. Broken clouds.1 mph84%29.80 "HgN/A
2:00 PM81 °FThunderstorms. Broken clouds.12 mph74%29.80 "HgN/A
1:00 PM88 °FBroken clouds.7 mph62%29.83 "HgN/A
Weather by CustomWeather, © 2014

See weather overviewHow to use our weather pages